Location: Lake Zurich
(42.1970°N, 88.0930°W)
Time: 18:37:33
(UTC-06:00)

Amateur Radio Satellites - All Passes

Search period start: 09 February 2016 18:07
Search period end: 10 February 2016 18:07
Location: Lake Zurich, 42.1970°N, 88.0930°W

Satellite Date Start Highest point End Downlink Frequencies (MHz)
Time Altitude Azimuth
Cosmos 2504 09 Feb 18:16:47 18:20:53 14° 286° (WNW) 18:24:52 435.465 / 435.565
CINEMA 3 09 Feb 18:19:36 18:22:31 17° 65° (ENE) 18:25:21 145.822/145.860
ISS 09 Feb 18:32:17 18:34:24 16° 354° (N) 18:36:32 145.825
COMPASS 1 09 Feb 18:34:34 18:36:51 15° 64° (ENE) 18:39:09 437.405
CUTE 1.7 + AOD 2 09 Feb 18:39:46 18:43:23 29° 69° (ENE) 18:47:02 437.475
CUBESAT XI-V 09 Feb 18:44:07 18:47:52 24° 294° (WNW) 18:51:35 437.345
SEEDS 09 Feb 18:46:49 18:50:17 26° 69° (ENE) 18:53:47 437.485
LilacSat-2 09 Feb 18:47:34 18:48:17 10° 270° (W) 18:49:01 437.200
PRISM 09 Feb 18:51:05 18:53:29 15° 92° (E) 18:55:53 437.425
O/OREOS (USA 219) 09 Feb 18:51:38 18:54:42 18° 260° (W) 18:57:46 437.305
DOVE 4 09 Feb 18:57:51 19:02:59 73° 258° (WSW) 19:07:51 437.250
CUTE-I 09 Feb 18:58:10 19:00:36 13° 271° (W) 19:03:02 437.470
BEESAT 3 09 Feb 18:59:34 19:00:49 11° 323° (NW) 19:02:04 437.485
AAUSAT CUBESAT 2 09 Feb 19:02:20 19:05:38 23° 68° (ENE) 19:08:56 437.432
GOMX 1 09 Feb 19:15:54 19:20:34 29° 265° (W) 19:25:05 467.674
STRAND 1 09 Feb 19:16:23 19:21:35 89° 312° (NW) 19:26:45 437.568
PCSat 09 Feb 19:17:02 19:22:19 48° 54° (NE) 19:27:33 145.827
BEESAT 2 09 Feb 19:23:57 19:24:39 10° 324° (NW) 19:25:20 435.950
CANX-2 09 Feb 19:24:06 19:28:18 80° 258° (WSW) 19:32:33 2200.000
ZACube-1 09 Feb 19:25:23 19:27:36 14° 64° (ENE) 19:29:50 437.345
AO-85 09 Feb 19:28:19 19:33:22 58° 242° (WSW) 19:37:58 145.980
Cosmos 2499 09 Feb 19:29:58 19:36:52 27° 65° (ENE) 19:43:21 435.465 / 435.565
FUNcube-1 09 Feb 19:34:05 19:36:45 17° 65° (ENE) 19:39:24 145.935
AIST 2 09 Feb 19:35:07 19:39:07 44° 308° (NW) 19:43:08 435.215
HO-68 09 Feb 19:39:20 19:46:27 66° 257° (WSW) 19:53:38 435.675
RS-15 09 Feb 19:50:59 20:03:08 69° 52° (NE) 20:15:26 29.354- 29.394
GONETS M04 09 Feb 19:54:23 20:03:15 81° 82° (E) 20:12:05
CINEMA 3 09 Feb 19:54:47 19:59:19 51° 260° (W) 20:03:40 145.822/145.860
CUBEBUG 2 09 Feb 20:03:22 20:07:42 72° 75° (ENE) 20:11:55 437.445
UWE-3 09 Feb 20:04:46 20:08:55 53° 74° (ENE) 20:13:01 435.000/436.395/437.385
Oscar 11 09 Feb 20:05:39 20:09:47 49° 73° (ENE) 20:13:58 145.826/435.025
COMPASS 1 09 Feb 20:07:59 20:12:00 51° 260° (W) 20:16:05 437.405
ISS 09 Feb 20:09:16 20:11:45 20° 15° (NNE) 20:14:14 145.825
CUTE 1.7 + AOD 2 09 Feb 20:15:47 20:19:13 24° 266° (W) 20:22:41 437.475
DELFI C3 09 Feb 20:17:42 20:21:18 34° 71° (ENE) 20:24:57 145.870
SEEDS 09 Feb 20:22:24 20:25:56 27° 265° (W) 20:29:30 437.485
PRISM 09 Feb 20:25:03 20:29:04 46° 288° (WNW) 20:33:03 437.425
AAUSAT CUBESAT 2 09 Feb 20:37:23 20:41:00 29° 264° (W) 20:44:39 437.432
AIST 1 09 Feb 20:54:10 20:58:04 31° 75° (ENE) 21:01:55
STRAND 1 09 Feb 20:57:50 20:59:59 13° 302° (WNW) 21:02:07 437.568
ZACube-1 09 Feb 20:59:23 21:03:30 52° 260° (W) 21:07:35 437.345
PCSat 09 Feb 21:01:03 21:05:24 25° 252° (WSW) 21:09:44 145.827
FUNcube-1 09 Feb 21:08:41 21:12:42 43° 261° (W) 21:16:41 145.935
VELOX 1 09 Feb 21:12:47 21:15:08 14° 62° (ENE) 21:17:28 145.980
UNISAT 6 09 Feb 21:14:25 21:16:43 14° 91° (E) 21:19:01 437.425
HUMSAT D 09 Feb 21:19:33 21:23:37 75° 75° (ENE) 21:27:42 437.325/437.525
Cosmos 2499 09 Feb 21:22:24 21:30:45 66° 268° (W) 21:38:25 435.465 / 435.565
AISAT 09 Feb 21:28:15 21:31:37 21° 65° (ENE) 21:34:57 437.250
HO-68 09 Feb 21:35:07 21:35:27 10° 275° (W) 21:35:47 435.675
UKube-1 09 Feb 21:41:42 21:45:14 25° 67° (ENE) 21:48:47 .
UWE-3 09 Feb 21:43:40 21:45:42 13° 269° (W) 21:47:43 435.000/436.395/437.385
Oscar 11 09 Feb 21:43:47 21:46:13 15° 269° (W) 21:48:39 145.826/435.025
ISS 09 Feb 21:45:22 21:48:37 75° 32° (NNE) 21:51:51 145.825
CUBEBUG 1 09 Feb 21:47:59 21:51:40 26° 67° (ENE) 21:55:22 437.445
ESTCUBE 1 09 Feb 21:48:36 21:52:43 35° 70° (ENE) 21:56:51 437.505/2401.250
DX 1 09 Feb 21:52:51 21:56:54 38° 70° (ENE) 22:00:59 434.975-435.025
GONETS M04 09 Feb 21:52:53 21:58:59 22° 281° (WNW) 22:05:07
DELFI C3 09 Feb 21:53:35 21:56:20 18° 267° (W) 21:59:07 145.870
SPROUT 09 Feb 21:54:04 21:55:05 11° 61° (ENE) 21:56:06 437.525
ANTELSAT 09 Feb 21:57:59 22:02:06 41° 99° (E) 22:06:17 437.575/2403.000
RS-15 09 Feb 22:04:12 22:14:55 39° 254° (WSW) 22:25:44 29.354- 29.394
TIGRISAT 09 Feb 22:04:53 22:09:03 46° 99° (E) 22:13:17 435.000
NANOSAT C BR1 09 Feb 22:05:46 22:06:41 11° 89° (E) 22:07:38 145.865
50 SAT 09 Feb 22:06:34 22:10:12 56° 74° (ENE) 22:13:51 437.505
DUCHIFAT 1 09 Feb 22:07:23 22:08:10 10° 89° (E) 22:08:59 145.980
QB50P1 09 Feb 22:12:31 22:14:41 14° 91° (E) 22:16:50 145.935-145.965
AIST 1 09 Feb 22:32:09 22:35:29 22° 272° (W) 22:38:46
VELOX 1 09 Feb 22:46:40 22:51:06 62° 259° (W) 22:55:32 145.980
UNISAT 6 09 Feb 22:49:30 22:53:44 53° 287° (WNW) 22:58:02 437.425
POLYITAN 1 09 Feb 23:03:31 23:07:38 52° 100° (E) 23:11:44 437.675
AISAT 09 Feb 23:03:39 23:07:50 39° 262° (W) 23:12:03 437.250
QB50P2 09 Feb 23:04:10 23:08:18 54° 100° (E) 23:12:26 145.880/145.840
BUGSAT 1 09 Feb 23:07:14 23:10:39 26° 96° (E) 23:14:00 437.445
UKube-1 09 Feb 23:17:20 23:21:11 30° 263° (W) 23:25:02 .
Cosmos 2499 09 Feb 23:19:54 23:21:58 11° 289° (WNW) 23:23:59 435.465 / 435.565
ISS 09 Feb 23:23:06 23:24:40 13° 229° (SW) 23:26:12 145.825
CUBEBUG 1 09 Feb 23:23:56 23:27:50 30° 264° (W) 23:31:46 437.445
ESTCUBE 1 09 Feb 23:26:02 23:29:36 23° 266° (W) 23:33:12 437.505/2401.250
SPROUT 09 Feb 23:26:07 23:30:26 78° 258° (WSW) 23:34:45 437.525
DX 1 09 Feb 23:29:59 23:33:14 20° 266° (W) 23:36:29 434.975-435.025
POPSAT HIP 1 09 Feb 23:33:56 23:38:08 72° 286° (WNW) 23:42:18 437.405
ANTELSAT 09 Feb 23:35:29 23:38:33 19° 295° (WNW) 23:41:39 437.575/2403.000
TISAT 1 09 Feb 23:35:35 23:39:40 49° 72° (ENE) 23:43:45 437.305
SWISSCUBE 09 Feb 23:36:22 23:38:21 13° 59° (ENE) 23:40:20 437.505
NANOSAT C BR1 09 Feb 23:38:42 23:42:52 65° 286° (WNW) 23:47:01 145.865
DUCHIFAT 1 09 Feb 23:40:10 23:44:20 65° 285° (WNW) 23:48:27 145.980
TIGRISAT 09 Feb 23:42:37 23:45:25 17° 295° (WNW) 23:48:15 435.000
QB50P1 09 Feb 23:46:42 23:50:46 51° 287° (WNW) 23:54:50 145.935-145.965
BEESAT 3 10 Feb 00:00:16 00:01:04 10° 36° (NE) 00:01:52 437.485
ITUPSAT 1 10 Feb 00:11:03 00:14:50 24° 65° (ENE) 00:18:38 437.325
PHONESAT 2.4 10 Feb 00:14:30 00:16:46 17° 152° (SSE) 00:19:02 2401.200-2431.200
BEESAT 10 Feb 00:19:12 00:23:15 29° 67° (ENE) 00:27:21 436.000
BEESAT 2 10 Feb 00:23:49 00:25:20 12° 37° (NE) 00:26:51 435.950
JAS-2 10 Feb 00:30:54 00:34:31 17° 89° (E) 00:37:56 435.910
POLYITAN 1 10 Feb 00:40:42 00:43:02 15° 297° (WNW) 00:45:23 437.675
QB50P2 10 Feb 00:41:27 00:43:41 14° 297° (WNW) 00:45:54 145.880/145.840
BUGSAT 1 10 Feb 00:42:39 00:45:57 25° 292° (WNW) 00:49:14 437.445
Cosmos 2491 10 Feb 00:44:48 00:52:05 28° 67° (ENE) 00:59:21 435.465 / 435.565
CUSAT 1 10 Feb 00:46:11 00:53:31 43° 90° (E) 01:00:56 437.405
Oscar 19 10 Feb 01:04:07 01:09:07 50° 100° (E) 01:14:04 437.125/150
SWISSCUBE 10 Feb 01:10:43 01:15:28 81° 257° (WSW) 01:20:17 437.505
TISAT 1 10 Feb 01:13:17 01:15:37 14° 268° (W) 01:17:57 437.305
DANDE 10 Feb 01:19:19 01:26:31 44° 89° (E) 01:34:25 436.750
Gurwin Techsat 1B 10 Feb 01:35:17 01:40:13 37° 97° (E) 01:45:08 435.225
BEESAT 3 10 Feb 01:35:36 01:39:34 71° 56° (NE) 01:43:29 437.485
YUBILEINY 10 Feb 01:36:57 01:43:21 23° 79° (E) 01:49:45 435.215
STARS 10 Feb 01:42:54 01:45:34 16° 63° (ENE) 01:48:14 437.465
ITUPSAT 1 10 Feb 01:48:01 01:52:27 38° 262° (W) 01:56:56 437.325
PHONESAT 2.4 10 Feb 01:50:26 01:53:38 50° 168° (SSE) 01:56:49 2401.200-2431.200
MOZHAYETS 4 10 Feb 01:54:00 01:56:32 15° 62° (ENE) 01:59:07
BEESAT 10 Feb 01:56:45 02:00:58 31° 264° (W) 02:05:13 436.000
KKS-1 10 Feb 01:58:17 02:02:27 40° 70° (ENE) 02:06:38 437.445
BEESAT 2 10 Feb 01:59:52 02:03:54 83° 58° (ENE) 02:07:52 435.950
ITAMSAT 1 10 Feb 02:13:00 02:18:00 43° 99° (E) 02:22:58 435.822/435.867
JAS-2 10 Feb 02:14:36 02:20:13 58° 289° (WNW) 02:25:21 435.910
AIST 2 10 Feb 02:18:19 02:21:11 18° 42° (NE) 02:24:01 435.215
CUSAT 1 10 Feb 02:28:07 02:35:44 46° 287° (WNW) 02:43:23 437.405
Cosmos 2491 10 Feb 02:40:58 02:49:35 66° 268° (W) 02:58:13 435.465 / 435.565
Oscar 19 10 Feb 02:44:17 02:48:05 21° 297° (WNW) 02:51:51 437.125/150
DANDE 10 Feb 03:02:02 03:09:28 45° 289° (WNW) 03:17:33 436.750
Cosmos 2504 10 Feb 03:08:25 03:13:53 19° 76° (ENE) 03:19:28 435.465 / 435.565
AO-7 10 Feb 03:14:20 03:22:14 45° 100° (E) 03:30:02 29.400- 29.500
Gurwin Techsat 1B 10 Feb 03:15:30 03:20:01 29° 294° (WNW) 03:24:32 435.225
BEESAT 3 10 Feb 03:16:25 03:16:43 10° 252° (WSW) 03:17:03 437.485
HORYU 2 10 Feb 03:17:09 03:19:40 15° 92° (E) 03:22:11 437.375
STARS 10 Feb 03:17:13 03:21:32 52° 260° (W) 03:25:50 437.465
PHONESAT 2.4 10 Feb 03:27:31 03:30:46 63° 185° (S) 03:34:00 2401.200-2431.200
MOZHAYETS 4 10 Feb 03:28:42 03:33:13 61° 259° (W) 03:37:46
YUBILEINY 10 Feb 03:30:22 03:39:08 76° 279° (W) 03:48:02 435.215
M-CUBED/EXP-1 PRIME 10 Feb 03:30:42 03:33:07 18° 101° (E) 03:35:38 437.505
KKS-1 10 Feb 03:35:57 03:39:11 19° 267° (W) 03:42:25 437.445
AUBIESAT-1 10 Feb 03:40:16 03:42:52 20° 101° (ESE) 03:45:33 437.475
ITAMSAT 1 10 Feb 03:52:59 03:57:13 25° 296° (WNW) 04:01:25 435.822/435.867
AIST 2 10 Feb 03:55:58 04:00:02 58° 240° (WSW) 04:04:03 435.215
CUBESAT XI-V 10 Feb 04:09:55 04:14:15 38° 70° (ENE) 04:18:37 437.345
SO-50 10 Feb 04:41:27 04:46:20 72° 121° (ESE) 04:51:17 436.795
Cosmos 2491 10 Feb 04:42:06 04:44:35 11° 288° (WNW) 04:47:05 435.465 / 435.565
HORYU 2 10 Feb 04:52:13 04:56:33 53° 288° (WNW) 05:00:53 437.375
STRAND 1 10 Feb 04:55:46 04:59:11 18° 61° (ENE) 05:02:36 437.568
Cosmos 2504 10 Feb 04:57:21 05:05:56 89° 99° (E) 05:14:54 435.465 / 435.565
PHONESAT 2.4 10 Feb 05:04:53 05:07:46 29° 202° (SSW) 05:10:39 2401.200-2431.200
M-CUBED/EXP-1 PRIME 10 Feb 05:04:55 05:07:47 26° 294° (WNW) 05:10:47 437.505
AO-7 10 Feb 05:07:13 05:14:57 44° 299° (WNW) 05:22:37 29.400- 29.500
AUBIESAT-1 10 Feb 05:14:33 05:17:25 25° 295° (WNW) 05:20:25 437.475
CUTE-I 10 Feb 05:31:34 05:36:17 30° 96° (E) 05:40:58 437.470
YUBILEINY 10 Feb 05:32:34 05:37:38 16° 302° (WNW) 05:42:44 435.215
PRISM 10 Feb 05:42:02 05:43:55 13° 62° (ENE) 05:45:47 437.425
Cubesat XI-IV 10 Feb 05:45:09 05:50:12 40° 98° (E) 05:55:13 437.490
CUBESAT XI-V 10 Feb 05:48:05 05:51:45 22° 267° (W) 05:55:27 437.345
BRITE-PL 10 Feb 06:12:40 06:17:06 38° 96° (E) 06:21:13 437.365/2234.400
LilacSat-2 10 Feb 06:17:01 06:20:49 80° 105° (ESE) 06:24:35 437.200
SO-50 10 Feb 06:23:41 06:27:22 20° 320° (NW) 06:31:02 436.795
STRAND 1 10 Feb 06:32:50 06:37:52 60° 259° (W) 06:42:58 437.568
Cosmos 2504 10 Feb 06:54:20 07:00:35 21° 298° (WNW) 07:07:00 435.465 / 435.565
DOVE 4 10 Feb 06:57:12 07:00:46 26° 95° (E) 07:04:16 437.250
GONETS M04 10 Feb 07:03:25 07:08:43 18° 77° (ENE) 07:14:02
AO-7 10 Feb 07:04:20 07:05:32 10° 321° (NW) 07:06:44 29.400- 29.500
HO-68 10 Feb 07:07:19 07:12:55 24° 93° (E) 07:18:30 435.675
CANX-2 10 Feb 07:09:40 07:12:32 17° 92° (E) 07:15:24 2200.000
CUTE-I 10 Feb 07:11:28 07:16:21 36° 293° (WNW) 07:21:14 437.470
PRISM 10 Feb 07:14:37 07:18:44 61° 259° (WSW) 07:22:53 437.425
GOMX 1 10 Feb 07:17:01 07:21:29 90° 312° (NW) 07:25:42 467.674
O/OREOS (USA 219) 10 Feb 07:23:55 07:28:14 49° 108° (ESE) 07:32:36 437.305
Cubesat XI-IV 10 Feb 07:25:33 07:30:05 28° 295° (WNW) 07:34:37 437.490
CINEMA 3 10 Feb 07:49:06 07:52:51 32° 97° (E) 07:56:36 145.822/145.860
COMPASS 1 10 Feb 07:50:49 07:54:15 24° 94° (E) 07:57:40 437.405
BRITE-PL 10 Feb 07:51:41 07:55:19 22° 296° (WNW) 07:58:46 437.365/2234.400
CUBEBUG 2 10 Feb 07:55:07 07:57:15 14° 91° (E) 07:59:23 437.445
CUTE 1.7 + AOD 2 10 Feb 07:59:14 08:03:26 53° 100° (E) 08:07:39 437.475
SEEDS 10 Feb 08:05:04 08:09:12 46° 99° (E) 08:13:18 437.485
Cosmos 2499 10 Feb 08:07:43 08:13:52 22° 78° (ENE) 08:20:05 435.465 / 435.565
UNISAT 6 10 Feb 08:14:30 08:16:43 14° 63° (ENE) 08:18:55 437.425
AAUSAT CUBESAT 2 10 Feb 08:18:45 08:22:44 39° 98° (E) 08:26:40 437.432
DOVE 4 10 Feb 08:34:55 08:38:27 26° 292° (WNW) 08:41:53 437.250
CANX-2 10 Feb 08:44:32 08:48:35 42° 288° (WNW) 08:52:38 2200.000
ZACube-1 10 Feb 08:47:18 08:50:52 26° 96° (E) 08:54:28 437.345
HO-68 10 Feb 08:54:01 09:01:09 67° 290° (WNW) 09:08:15 435.675
GONETS M04 10 Feb 08:55:32 09:04:14 90° 112° (ESE) 09:13:00
FUNcube-1 10 Feb 08:56:01 08:59:47 31° 97° (E) 09:03:36 145.935
ANTELSAT 10 Feb 08:57:27 09:01:25 38° 71° (ENE) 09:05:24 437.575/2403.000
TIGRISAT 10 Feb 09:04:05 09:08:10 42° 72° (ENE) 09:12:12 435.000
HUMSAT D 10 Feb 09:04:38 09:06:04 11° 90° (E) 09:07:31 437.325/437.525
O/OREOS (USA 219) 10 Feb 09:04:46 09:07:55 19° 306° (NW) 09:11:07 437.305
QB50P1 10 Feb 09:06:27 09:08:10 12° 62° (ENE) 09:09:53 145.935-145.965
AIST 1 10 Feb 09:24:47 09:27:50 19° 87° (E) 09:30:54
COMPASS 1 10 Feb 09:26:08 09:29:49 30° 291° (WNW) 09:33:30 437.405
CINEMA 3 10 Feb 09:26:42 09:29:50 21° 293° (WNW) 09:32:58 145.822/145.860
Oscar 11 10 Feb 09:28:07 09:32:30 84° 280° (W) 09:36:50 145.826/435.025
DELFI C3 10 Feb 09:29:38 09:33:37 54° 100° (E) 09:37:34 145.870
UWE-3 10 Feb 09:29:53 09:34:05 72° 285° (WNW) 09:38:21 435.000/436.395/437.385
CUBEBUG 2 10 Feb 09:30:06 09:34:10 51° 287° (WNW) 09:38:17 437.445
CUTE 1.7 + AOD 2 10 Feb 09:36:26 09:38:51 15° 296° (WNW) 09:41:17 437.475
SEEDS 10 Feb 09:41:50 09:44:33 17° 295° (WNW) 09:47:15 437.485
AO-85 10 Feb 09:41:57 09:47:03 48° 116° (ESE) 09:52:20 145.980
UNISAT 6 10 Feb 09:48:43 09:52:59 57° 259° (W) 09:57:13 437.425
AAUSAT CUBESAT 2 10 Feb 09:55:01 09:57:57 19° 294° (WNW) 10:00:53 437.432
POLYITAN 1 10 Feb 09:56:35 10:00:34 41° 71° (ENE) 10:04:32 437.675
Cosmos 2499 10 Feb 09:57:09 10:05:54 83° 279° (W) 10:14:51 435.465 / 435.565
QB50P2 10 Feb 09:57:10 10:01:11 43° 72° (ENE) 10:05:12 145.880/145.840
BUGSAT 1 10 Feb 09:57:44 10:00:55 21° 67° (ENE) 10:04:05 437.445
PCSat 10 Feb 09:59:17 10:04:17 39° 111° (ESE) 10:09:18 145.827
RS-15 10 Feb 10:16:01 10:25:52 39° 107° (ESE) 10:36:09 29.354- 29.394
ZACube-1 10 Feb 10:23:34 10:27:07 27° 291° (WNW) 10:30:43 437.345
POPSAT HIP 1 10 Feb 10:26:33 10:30:48 88° 76° (ENE) 10:35:02 437.405
NANOSAT C BR1 10 Feb 10:30:59 10:35:12 84° 254° (WSW) 10:39:27 145.865
DUCHIFAT 1 10 Feb 10:32:12 10:36:26 86° 261° (W) 10:40:39 145.980
FUNcube-1 10 Feb 10:32:35 10:35:54 23° 292° (WNW) 10:39:16 145.935
ANTELSAT 10 Feb 10:35:14 10:38:18 19° 267° (W) 10:41:21 437.575/2403.000
VELOX 1 10 Feb 10:36:57 10:40:30 23° 95° (E) 10:44:01 145.980
HUMSAT D 10 Feb 10:37:58 10:42:05 60° 286° (WNW) 10:46:14 437.325/437.525
QB50P1 10 Feb 10:39:13 10:43:26 66° 259° (W) 10:47:38 145.935-145.965
TIGRISAT 10 Feb 10:42:16 10:45:03 17° 267° (W) 10:47:51 435.000
HO-68 10 Feb 10:44:10 10:47:32 14° 310° (NW) 10:50:55 435.675
JAS-2 10 Feb 10:44:53 10:48:07 14° 55° (NE) 10:51:15 435.910
Oscar 19 10 Feb 10:46:50 10:48:00 11° 57° (ENE) 10:49:10 437.125/150
AISAT 10 Feb 10:53:19 10:57:25 36° 98° (E) 11:01:27 437.250
GONETS M04 10 Feb 10:56:25 11:02:21 20° 299° (WNW) 11:08:20
AIST 1 10 Feb 11:01:02 11:05:08 38° 283° (WNW) 11:09:16
UKube-1 10 Feb 11:03:32 11:07:38 40° 99° (E) 11:11:41 .
DELFI C3 10 Feb 11:06:09 11:08:04 13° 296° (WNW) 11:10:01 145.870
50 SAT 10 Feb 11:11:21 11:15:10 74° 103° (ESE) 11:18:58 437.505
CUBEBUG 1 10 Feb 11:11:33 11:15:46 46° 99° (E) 11:19:56 437.445
SPROUT 10 Feb 11:12:54 11:15:43 17° 92° (E) 11:18:31 437.525
DX 1 10 Feb 11:16:15 11:20:36 67° 102° (ESE) 11:24:55 434.975-435.025
ESTCUBE 1 10 Feb 11:16:48 11:21:22 73° 102° (ESE) 11:25:53 437.505/2401.250
AO-85 10 Feb 11:23:00 11:27:48 31° 315° (NW) 11:32:42 145.980
CUSAT 1 10 Feb 11:24:34 11:29:12 23° 63° (ENE) 11:32:58 437.405
BUGSAT 1 10 Feb 11:32:17 11:36:07 34° 263° (W) 11:39:55 437.445
SO-50 10 Feb 11:33:35 11:36:10 14° 34° (NE) 11:38:43 436.795
POLYITAN 1 10 Feb 11:33:47 11:36:34 17° 267° (W) 11:39:21 437.675
QB50P2 10 Feb 11:34:31 11:37:13 16° 268° (W) 11:39:55 145.880/145.840
PCSat 10 Feb 11:42:51 11:47:43 33° 310° (NW) 11:52:38 145.827
YUBILEINY 10 Feb 11:47:14 11:49:37 11° 53° (NE) 11:51:59 435.215
Cosmos 2499 10 Feb 11:54:36 12:00:27 19° 300° (WNW) 12:06:23 435.465 / 435.565
DANDE 10 Feb 12:01:12 12:07:28 32° 66° (ENE) 12:12:27 436.750
VELOX 1 10 Feb 12:13:04 12:17:02 33° 291° (WNW) 12:20:58 145.980
Oscar 19 10 Feb 12:21:16 12:26:26 77° 74° (ENE) 12:31:38 437.125/150
JAS-2 10 Feb 12:24:31 12:32:04 66° 72° (ENE) 12:38:58 435.910
AO-7 10 Feb 12:26:06 12:30:31 16° 45° (NE) 12:34:55 29.400- 29.500
RS-15 10 Feb 12:26:31 12:37:37 65° 310° (NW) 12:49:23 29.354- 29.394
AISAT 10 Feb 12:30:19 12:33:41 22° 294° (WNW) 12:37:03 437.250
UKube-1 10 Feb 12:40:18 12:43:24 19° 295° (WNW) 12:46:29 .
SPROUT 10 Feb 12:47:52 12:51:54 41° 289° (WNW) 12:55:54 437.525
CUBEBUG 1 10 Feb 12:48:50 12:51:42 17° 296° (WNW) 12:54:32 437.445
DX 1 10 Feb 12:54:19 12:56:14 13° 299° (WNW) 12:58:10 434.975-435.025
TISAT 1 10 Feb 12:54:31 12:58:43 85° 103° (ESE) 13:02:53 437.305
ESTCUBE 1 10 Feb 12:55:36 12:57:35 13° 299° (WNW) 12:59:32 437.505/2401.250
Gurwin Techsat 1B 10 Feb 12:56:44 13:01:57 62° 72° (ENE) 13:07:13 435.225
CUSAT 1 10 Feb 13:06:26 13:11:53 41° 270° (W) 13:16:03 437.405
SWISSCUBE 10 Feb 13:10:57 13:14:54 25° 95° (E) 13:18:50 437.505
SO-50 10 Feb 13:12:44 13:17:34 72° 54° (NE) 13:22:14 436.795
ITAMSAT 1 10 Feb 13:31:21 13:36:30 70° 73° (ENE) 13:41:42 435.822/435.867
YUBILEINY 10 Feb 13:40:02 13:48:45 57° 77° (ENE) 13:57:21 435.215
DANDE 10 Feb 13:44:09 13:50:37 41° 272° (W) 13:55:38 436.750
Cosmos 2491 10 Feb 13:47:22 13:54:38 31° 83° (E) 14:01:53 435.465 / 435.565
ITUPSAT 1 10 Feb 13:47:34 13:52:17 51° 100° (E) 13:56:58 437.325
BEESAT 10 Feb 13:55:36 14:00:22 63° 102° (ESE) 14:05:07 436.000
Oscar 19 10 Feb 14:04:01 14:06:19 13° 271° (W) 14:08:39 437.125/150
JAS-2 10 Feb 14:11:17 14:17:23 26° 267° (W) 14:23:08 435.910
AO-7 10 Feb 14:13:28 14:21:40 63° 66° (ENE) 14:29:54 29.400- 29.500
HORYU 2 10 Feb 14:16:06 14:18:43 16° 63° (ENE) 14:21:21 437.375
M-CUBED/EXP-1 PRIME 10 Feb 14:18:20 14:21:25 27° 66° (ENE) 14:24:22 437.505
ISS 10 Feb 14:26:14 14:28:24 17° 132° (SE) 14:30:34 145.825
AUBIESAT-1 10 Feb 14:27:30 14:30:37 28° 66° (ENE) 14:33:36 437.475
Gurwin Techsat 1B 10 Feb 14:38:58 14:42:20 17° 269° (W) 14:45:43 435.225
RS-15 10 Feb 14:43:34 14:53:01 28° 340° (NNW) 15:02:52 29.354- 29.394
SWISSCUBE 10 Feb 14:48:23 14:52:46 36° 291° (WNW) 14:57:08 437.505
Cosmos 2504 10 Feb 14:50:25 14:58:12 35° 69° (ENE) 15:05:29 435.465 / 435.565
SO-50 10 Feb 14:55:01 14:57:26 14° 252° (WSW) 14:59:47 436.795
STARS 10 Feb 15:06:30 15:10:10 26° 96° (E) 15:13:49 437.465
ITAMSAT 1 10 Feb 15:13:41 15:16:28 15° 270° (W) 15:19:17 435.822/435.867
MOZHAYETS 4 10 Feb 15:23:25 15:27:31 30° 96° (E) 15:31:36
KKS-1 10 Feb 15:24:49 15:29:16 77° 103° (ESE) 15:33:41 437.445
ITUPSAT 1 10 Feb 15:26:23 15:29:44 19° 297° (WNW) 15:33:04 437.325
BEESAT 3 10 Feb 15:30:42 15:31:13 10° 108° (ESE) 15:31:44 437.485
BEESAT 10 Feb 15:34:49 15:37:38 16° 299° (WNW) 15:40:28 436.000
YUBILEINY 10 Feb 15:37:34 15:45:03 32° 277° (W) 15:52:30 435.215
Cosmos 2491 10 Feb 15:42:23 15:50:55 58° 283° (WNW) 15:59:31 435.465 / 435.565
HORYU 2 10 Feb 15:50:33 15:54:51 54° 259° (W) 15:59:12 437.375
M-CUBED/EXP-1 PRIME 10 Feb 15:53:30 15:56:05 18° 259° (W) 15:58:34 437.505
BEESAT 2 10 Feb 15:54:53 15:56:40 13° 109° (ESE) 15:58:26 435.950
O/OREOS (USA 219) 10 Feb 15:55:34 15:57:47 13° 50° (NE) 15:59:59 437.305
ISS 10 Feb 16:01:20 16:04:33 59° 329° (NNW) 16:07:46 145.825
AUBIESAT-1 10 Feb 16:02:47 16:05:14 17° 259° (W) 16:07:37 437.475
AO-7 10 Feb 16:07:50 16:14:54 30° 265° (W) 16:22:00 29.400- 29.500
AO-85 10 Feb 16:35:04 16:36:51 12° 28° (NNE) 16:38:36 145.980
STARS 10 Feb 16:42:44 16:46:31 29° 292° (WNW) 16:50:17 437.465
Cosmos 2504 10 Feb 16:43:38 16:51:52 52° 271° (W) 16:59:34 435.465 / 435.565
GOMX 1 10 Feb 16:49:31 16:52:13 14° 62° (ENE) 16:54:52 467.674
CUTE-I 10 Feb 16:53:45 16:58:53 51° 71° (ENE) 17:04:04 437.470
LilacSat-2 10 Feb 16:59:30 17:03:05 40° 73° (ENE) 17:06:40 437.200
MOZHAYETS 4 10 Feb 17:00:39 17:04:36 28° 292° (WNW) 17:08:32
RS-15 10 Feb 17:01:19 17:10:53 26° 16° (NNE) 17:20:40 29.354- 29.394
KKS-1 10 Feb 17:03:44 17:05:13 12° 300° (WNW) 17:06:41 437.445
BEESAT 3 10 Feb 17:04:25 17:08:23 72° 303° (WNW) 17:12:23 437.485
Cubesat XI-IV 10 Feb 17:07:34 17:12:51 68° 73° (ENE) 17:18:10 437.490
BRITE-PL 10 Feb 17:22:22 17:27:52 52° 72° (ENE) 17:33:13 437.365/2234.400
BEESAT 2 10 Feb 17:30:04 17:34:03 60° 305° (NW) 17:38:03 435.950
O/OREOS (USA 219) 10 Feb 17:33:11 17:37:47 79° 250° (WSW) 17:42:23 437.305
HO-68 10 Feb 17:37:41 17:42:40 21° 55° (NE) 17:47:40 435.675
ISS 10 Feb 17:39:09 17:41:30 18° 348° (NNW) 17:43:52 145.825
CUBESAT XI-V 10 Feb 17:42:50 17:47:34 88° 94° (E) 17:52:15 437.345
Cosmos 2491 10 Feb 17:47:30 17:50:00 11° 307° (NW) 17:52:30 435.465 / 435.565
AIST 2 10 Feb 17:54:20 17:57:46 25° 114° (ESE) 18:01:13 435.215
